DW2149 Weather Reports


time (UTC)temp
C
wind
direction
speed
KPH
gust
KPH
rain 1hr
cm
rain 24hr
cm
rain mn
cm
humidity
%
barometer
mb
20260831005430 27 258 0.0 6.4 0.00 0.00 0.00 33 1009.1
20260831005220 28 258 0.0 6.4 0.00 0.00 0.00 33 1009.2
20260831005018 28 245 0.0 3.2 0.00 0.00 0.00 33 1009.1
20260831004808 28 245 0.0 0.0 0.00 0.00 0.00 33 1009.2
20260831004607 28 245 0.0 12.9 0.00 0.00 0.00 33 1009.2
20260831004404 28 245 1.6 12.9 0.00 0.00 0.00 32 1009.2
20260831004158 28 245 1.6 12.9 0.00 0.00 0.00 33 1009.2
20260831003948 28 245 1.6 12.9 0.00 0.00 0.00 33 1009.2
20260831003737 28 277 1.6 12.9 0.00 0.00 0.00 32 1009.2
20260831003527 28 277 1.6 12.9 0.00 0.00 0.00 32 1009.3
20260831003314 28 270 1.6 12.9 0.00 0.00 0.00 32 1009.3
20260831003109 28 266 1.6 12.9 0.00 0.00 0.00 33 1009.3
20260831002901 28 281 0.0 6.4 0.00 0.00 0.00 33 1009.3
20260831002659 28 264 0.0 6.4 0.00 0.00 0.00 33 1009.2
20260831002308 28 263 0.0 6.4 0.00 0.00 0.00 33 1009.3
20260831001919 28 273 0.0 11.3 0.00 0.00 0.00 34 1009.2
20260831001716 28 285 0.0 11.3 0.00 0.00 0.00 33 1009.2
20260831001504 28 284 0.0 11.3 0.00 0.00 0.00 33 1009.2
20260831001255 28 284 0.0 11.3 0.00 0.00 0.00 33 1009.2
20260831001044 28 269 0.0 4.8 0.00 0.00 0.00 33 1009.2
20260831000649 28 197 0.0 4.8 0.00 0.00 0.00 36 1009.2
20260831000435 28 197 1.6 4.8 0.00 0.00 0.00 33 1009.3
20260831000228 28 222 0.0 4.8 0.00 0.00 0.00 33 1009.3
20260830235655 28 273 0.0 6.4 0.00 0.00 0.00 33 1009.2
20260830235448 28 273 0.0 6.4 0.00 0.00 0.00 34 1009.2
20260830235243 28 212 0.0 1.6 0.00 0.00 0.00 33 1009.2
20260830234700 28 233 0.0 11.3 0.00 0.00 0.00 33 1009.2
20260830234453 28 272 0.0 11.3 0.00 0.00 0.00 32 1009.2
20260830234248 28 272 0.0 11.3 0.00 0.00 0.00 33 1009.2
20260830234040 28 272 1.6 11.3 0.00 0.00 0.00 33 1009.2
20260830233828 29 272 1.6 11.3 0.00 0.00 0.00 34 1009.2
20260830233624 29 273 1.6 11.3 0.00 0.00 0.00 34 1009.2
20260830233413 29 267 0.0 4.8 0.00 0.00 0.00 32 1009.3
20260830233015 29 278 0.0 4.8 0.00 0.00 0.00 33 1009.2
20260830232811 29 280 0.0 4.8 0.00 0.00 0.00 34 1009.1
20260830232423 28 304 0.0 6.4 0.00 0.00 0.00 33 1009.2
20260830232214 28 308 0.0 6.4 0.00 0.00 0.00 34 1009.2
20260830232006 28 229 0.0 6.4 0.00 0.00 0.00 36 1009.2
20260830231759 28 232 1.6 0.0 0.00 0.00 0.00 34 1009.2
20260830231546 28 232 1.6 8.0 0.00 0.00 0.00 36 1009.3
20260830231339 28 246 1.6 8.0 0.00 0.00 0.00 34 1009.3
20260830231137 29 274 1.6 8.0 0.00 0.00 0.00 33 1009.4
20260830230924 29 310 1.6 8.0 0.00 0.00 0.00 33 1009.3
20260830230718 29 280 1.6 8.0 0.00 0.00 0.00 33 1009.3
20260830230508 29 327 0.0 8.0 0.00 0.00 0.00 33 1009.3
20260830230301 29 335 0.0 8.0 0.00 0.00 0.00 34 1009.4
20260830230053 29 246 0.0 8.0 0.00 0.00 0.00 33 1009.3
20260830225851 29 297 0.0 1.6 0.00 0.00 0.00 35 1009.3
20260830225647 29 314 0.0 0.0 0.00 0.00 0.00 34 1009.3
20260830225435 29 314 1.6 8.0 0.00 0.00 0.00 34 1009.4
20260830225227 29 0 1.6 11.3 0.00 0.00 0.00 35 1009.4
20260830225022 29 315 1.6 11.3 0.00 0.00 0.00 33 1009.6
20260830224812 29 217 1.6 11.3 0.00 0.00 0.00 33 1009.6
20260830224606 29 218 3.2 11.3 0.00 0.00 0.00 34 1009.6
20260830224353 29 242 3.2 11.3 0.00 0.00 0.00 34 1009.5
20260830224002 29 220 3.2 11.3 0.00 0.00 0.00 33 1009.6
20260830223755 29 207 3.2 11.3 0.00 0.00 0.00 34 1009.5
20260830223407 29 221 1.6 9.7 0.00 0.00 0.00 34 1009.5
20260830223203 29 196 1.6 9.7 0.00 0.00 0.00 34 1009.6
20260830222815 29 211 1.6 11.3 0.00 0.00 0.00 34 1009.6
20260830222608 29 254 1.6 11.3 0.00 0.00 0.00 35 1009.6
20260830222359 29 215 1.6 11.3 0.00 0.00 0.00 33 1009.7
20260830222156 29 215 1.6 11.3 0.00 0.00 0.00 34 1009.8
20260830221944 29 207 3.2 11.3 0.00 0.00 0.00 36 1009.8
20260830221732 29 186 3.2 11.3 0.00 0.00 0.00 34 1009.8
20260830221527 29 209 1.6 11.3 0.00 0.00 0.00 34 1009.8
20260830221316 28 265 1.6 11.3 0.00 0.00 0.00 35 1009.9
20260830221106 29 220 1.6 11.3 0.00 0.00 0.00 35 1009.9
20260830220858 29 236 1.6 11.3 0.00 0.00 0.00 37 1009.9
20260830220655 28 236 1.6 11.3 0.00 0.00 0.00 36 1009.9
20260830220303 28 273 1.6 11.3 0.00 0.00 0.00 35 1010.0
20260830220055 28 219 1.6 4.8 0.00 0.00 0.00 36 1010.0
20260830215842 28 193 1.6 8.0 0.00 0.00 0.00 35 1010.0
20260830215634 29 182 1.6 8.0 0.00 0.00 0.00 36 1010.0
20260830215243 29 215 1.6 8.0 0.00 0.00 0.00 35 1010.1
20260830215038 29 237 1.6 8.0 0.00 0.00 0.00 35 1010.2
20260830214826 28 285 1.6 9.7 0.00 0.00 0.00 37 1010.1
20260830214623 29 304 1.6 9.7 0.00 0.00 0.00 35 1010.1
20260830214419 28 287 1.6 9.7 0.00 0.00 0.00 35 1010.2
20260830214213 28 243 1.6 9.7 0.00 0.00 0.00 37 1010.2
20260830214002 28 227 1.6 9.7 0.00 0.00 0.00 37 1010.2
20260830213606 28 224 1.6 9.7 0.00 0.00 0.00 37 1010.2
20260830213211 28 212 0.0 9.7 0.00 0.00 0.00 38 1010.3
20260830213010 28 215 0.0 9.7 0.00 0.00 0.00 38 1010.2
20260830212804 28 163 0.0 8.0 0.00 0.00 0.00 38 1010.2
20260830212556 28 268 0.0 8.0 0.00 0.00 0.00 37 1010.2
20260830212352 28 200 1.6 8.0 0.00 0.00 0.00 39 1010.2
20260830212141 28 175 1.6 8.0 0.00 0.00 0.00 37 1010.2
20260830211935 28 169 1.6 8.0 0.00 0.00 0.00 37 1010.3
20260830211546 28 205 1.6 8.0 0.00 0.00 0.00 38 1010.3
20260830211338 28 199 0.0 4.8 0.00 0.00 0.00 38 1010.3
20260830211131 28 226 0.0 9.7 0.00 0.00 0.00 37 1010.3
20260830210918 28 211 0.0 9.7 0.00 0.00 0.00 37 1010.3
20260830210708 28 184 0.0 9.7 0.00 0.00 0.00 37 1010.3
20260830210321 28 238 1.6 9.7 0.00 0.00 0.00 36 1010.3
20260830205925 28 200 0.0 11.3 0.00 0.00 0.00 38 1010.3
20260830205714 28 195 0.0 11.3 0.00 0.00 0.00 38 1010.4
20260830205506 28 185 0.0 11.3 0.00 0.00 0.00 38 1010.4
20260830205259 28 198 1.6 11.3 0.00 0.00 0.00 38 1010.3
20260830205058 28 181 1.6 11.3 0.00 0.00 0.00 39 1010.3
20260830204848 28 186 1.6 11.3 0.00 0.00 0.00 37 1010.4
20260830204637 28 281 1.6 11.3 0.00 0.00 0.00 39 1010.3
20260830204429 28 280 1.6 11.3 0.00 0.00 0.00 37 1010.5
20260830204225 28 215 1.6 9.7 0.00 0.00 0.00 37 1010.3
20260830204019 28 151 1.6 9.7 0.00 0.00 0.00 38 1010.5
20260830203622 28 221 1.6 9.7 0.00 0.00 0.00 37 1010.4
20260830203224 28 238 1.6 9.7 0.00 0.00 0.00 36 1010.5
20260830203020 28 250 1.6 9.7 0.00 0.00 0.00 37 1010.5
20260830202815 28 244 0.0 8.0 0.00 0.00 0.00 39 1010.4
20260830202602 27 225 1.6 8.0 0.00 0.00 0.00 39 1010.5
20260830202359 27 223 1.6 8.0 0.00 0.00 0.00 39 1010.5
20260830202154 27 222 1.6 8.0 0.00 0.00 0.00 38 1010.4
20260830201941 27 236 1.6 8.0 0.00 0.00 0.00 39 1010.5
20260830201729 27 209 1.6 8.0 0.00 0.00 0.00 39 1010.4
20260830201518 27 210 1.6 8.0 0.00 0.00 0.00 39 1010.5
20260830201305 27 196 1.6 8.0 0.00 0.00 0.00 41 1010.5
20260830201100 27 220 1.6 11.3 0.00 0.00 0.00 39 1010.6
20260830200854 27 205 0.0 11.3 0.00 0.00 0.00 41 1010.5
20260830200651 27 215 0.0 11.3 0.00 0.00 0.00 39 1010.5
20260830200441 27 215 0.0 11.3 0.00 0.00 0.00 41 1010.5
20260830200228 27 207 0.0 11.3 0.00 0.00 0.00 43 1010.5
20260830200019 27 246 1.6 8.0 0.00 0.00 0.00 39 1010.5
20260830195806 27 207 0.0 8.0 0.00 0.00 0.00 41 1010.5
20260830195554 27 203 1.6 8.0 0.00 0.00 0.00 42 1010.5
20260830195342 27 289 1.6 8.0 0.00 0.00 0.00 39 1010.5
20260830195133 26 267 1.6 8.0 0.00 0.00 0.00 39 1010.5
20260830194737 27 213 3.2 11.3 0.00 0.00 0.00 39 1010.6
20260830194526 27 245 1.6 8.0 0.00 0.00 0.00 37 1010.6
20260830194319 26 254 1.6 8.0 0.00 0.00 0.00 38 1010.5
20260830194110 26 169 1.6 8.0 0.00 0.00 0.00 42 1010.6
20260830193904 27 159 0.0 8.0 0.00 0.00 0.00 41 1010.6
20260830193656 27 174 0.0 6.4 0.00 0.00 0.00 40 1010.6
20260830193450 27 242 0.0 6.4 0.00 0.00 0.00 38 1010.6
20260830193238 27 236 0.0 6.4 0.00 0.00 0.00 38 1010.6
20260830193027 27 209 0.0 3.2 0.00 0.00 0.00 36 1010.6
20260830192825 26 209 0.0 3.2 0.00 0.00 0.00 40 1010.7
20260830192616 26 209 0.0 11.3 0.00 0.00 0.00 36 1010.7
20260830192407 27 209 1.6 11.3 0.00 0.00 0.00 35 1010.7
20260830192156 27 209 1.6 8.0 0.00 0.00 0.00 36 1010.7
20260830191944 27 226 3.2 8.0 0.00 0.00 0.00 34 1010.8
20260830191739 27 282 3.2 8.0 0.00 0.00 0.00 33 1010.7
20260830191535 27 279 1.6 8.0 0.00 0.00 0.00 33 1010.7
20260830191324 27 294 1.6 8.0 0.00 0.00 0.00 33 1010.7
20260830191112 27 266 1.6 6.4 0.00 0.00 0.00 34 1010.7
20260830190910 27 219 0.0 4.8 0.00 0.00 0.00 34 1010.8
20260830190709 27 247 1.6 4.8 0.00 0.00 0.00 37 1010.8
20260830190507 27 281 1.6 11.3 0.00 0.00 0.00 33 1010.9
20260830190259 27 272 1.6 11.3 0.00 0.00 0.00 33 1010.9
20260830190051 27 271 3.2 8.0 0.00 0.00 0.00 33 1010.9
20260830185841 27 271 3.2 9.7 0.00 0.00 0.00 32 1011.0
20260830185632 27 286 1.6 9.7 0.00 0.00 0.00 34 1011.0
20260830185429 27 220 1.6 9.7 0.00 0.00 0.00 35 1010.9
20260830185218 27 220 1.6 9.7 0.00 0.00 0.00 33 1010.9
20260830185013 27 223 1.6 9.7 0.00 0.00 0.00 35 1011.0
20260830184801 26 228 1.6 9.7 0.00 0.00 0.00 35 1011.1
20260830184557 26 235 1.6 9.7 0.00 0.00 0.00 34 1011.1
20260830184206 26 209 1.6 9.7 0.00 0.00 0.00 35 1011.1
20260830183814 26 298 1.6 9.7 0.00 0.00 0.00 35 1011.1
20260830183607 26 209 0.0 9.7 0.00 0.00 0.00 36 1011.1
20260830183355 26 273 0.0 9.7 0.00 0.00 0.00 36 1011.2
20260830183001 25 215 1.6 9.7 0.00 0.00 0.00 37 1011.1
20260830182611 25 267 1.6 9.7 0.00 0.00 0.00 37 1011.1
20260830182224 25 206 1.6 9.7 0.00 0.00 0.00 37 1011.2
20260830182011 25 268 1.6 8.0 0.00 0.00 0.00 37 1011.2
20260830181804 25 168 1.6 8.0 0.00 0.00 0.00 38 1011.1
20260830181558 25 275 1.6 8.0 0.00 0.00 0.00 38 1011.1
20260830181351 25 275 1.6 8.0 0.00 0.00 0.00 38 1011.2
20260830180252 24 213 0.0 9.7 0.00 0.00 0.00 40 1011.1
20260830180046 24 213 1.6 9.7 0.00 0.00 0.00 40 1011.2
20260830175654 23 284 1.6 9.7 0.00 0.00 0.00 41 1011.1
20260830175450 23 284 1.6 9.7 0.00 0.00 0.00 40 1011.2
20260830175057 23 253 0.0 9.7 0.00 0.00 0.00 40 1011.3
20260830174848 23 211 0.0 6.4 0.00 0.00 0.00 42 1011.2
20260830174641 23 211 0.0 6.4 0.00 0.00 0.00 41 1011.2
20260830174431 23 211 0.0 6.4 0.00 0.00 0.00 41 1011.2
20260830174226 23 234 0.0 1.6 0.00 0.00 0.00 42 1011.2
20260830174020 23 234 0.0 1.6 0.00 0.00 0.00 41 1011.2
20260830173814 23 235 0.0 8.0 0.00 0.00 0.00 42 1011.3
20260830173609 23 235 1.6 8.0 0.00 0.00 0.00 42 1011.3
20260830173219 22 261 1.6 8.0 0.00 0.00 0.00 42 1011.3
20260830172823 22 280 1.6 8.0 0.00 0.00 0.00 43 1011.3
20260830172614 22 279 1.6 8.0 0.00 0.00 0.00 43 1011.3
20260830172408 22 279 1.6 8.0 0.00 0.00 0.00 44 1011.3
20260830172158 22 281 1.6 8.0 0.00 0.00 0.00 45 1011.3
20260830171946 21 281 1.6 8.0 0.00 0.00 0.00 44 1011.3
20260830171557 21 297 0.0 8.0 0.00 0.00 0.00 46 1011.3
20260830171345 21 349 1.6 8.0 0.00 0.00 0.00 46 1011.3
20260830171134 21 267 0.0 6.4 0.00 0.00 0.00 46 1011.4
20260830170926 20 267 0.0 6.4 0.00 0.00 0.00 45 1011.4
20260830170534 20 273 0.0 6.4 0.00 0.00 0.00 48 1011.4
20260830170331 20 213 0.0 3.2 0.00 0.00 0.00 49 1011.4
20260830170119 20 213 0.0 3.2 0.00 0.00 0.00 49 1011.3
20260830165351 18 186 0.0 6.4 0.00 0.00 0.00 50 1011.4
20260830165147 18 186 0.0 6.4 0.00 0.00 0.00 52 1011.4
20260830164936 18 244 0.0 6.4 0.00 0.00 0.00 53 1011.4
20260830164724 17 244 0.0 6.4 0.00 0.00 0.00 54 1011.4
20260830164513 17 245 0.0 6.4 0.00 0.00 0.00 56 1011.4
20260830164312 17 245 0.0 6.4 0.00 0.00 0.00 57 1011.4
20260830164108 17 245 0.0 6.4 0.00 0.00 0.00 58 1011.5
20260830163902 16 244 0.0 0.0 0.00 0.00 0.00 59 1011.4
20260830163657 16 244 0.0 1.6 0.00 0.00 0.00 59 1011.4
20260830163448 16 244 0.0 1.6 0.00 0.00 0.00 61 1011.5
20260830163239 16 244 0.0 1.6 0.00 0.00 0.00 61 1011.5
20260830163030 16 242 1.6 6.4 0.00 0.00 0.00 61 1011.5
20260830162825 15 255 0.0 4.8 0.00 0.00 0.00 62 1011.4
20260830162617 15 307 0.0 3.2 0.00 0.00 0.00 64 1011.4
20260830161856 15 309 0.0 1.6 0.00 0.00 0.00 74 1011.5
20260830161504 15 309 0.0 0.0 0.00 0.00 0.00 75 1011.5
20260830161253 15 309 0.0 0.0 0.00 0.00 0.00 75 1011.5
20260830160903 14 309 0.0 0.0 0.00 0.00 0.00 76 1011.5
20260830160511 14 309 0.0 0.0 0.00 0.00 0.00 75 1011.5
20260830160308 14 309 0.0 0.0 0.00 0.00 0.00 74 1011.5
20260830160056 13 309 0.0 0.0 0.00 0.00 0.00 74 1011.5
20260830155847 13 309 0.0 0.0 0.00 0.00 0.00 74 1011.5
20260830155638 13 309 0.0 0.0 0.00 0.00 0.00 74 1011.4
20260830155425 13 309 0.0 0.0 0.00 0.00 0.00 73 1011.4
20260830155221 13 309 0.0 0.0 0.00 0.00 0.00 73 1011.5
20260830155017 13 309 0.0 0.0 0.00 0.00 0.00 73 1011.5
20260830154814 13 309 0.0 0.0 0.00 0.00 0.00 73 1011.4
20260830154610 13 309 0.0 0.0 0.00 0.00 0.00 72 1011.4
20260830154404 13 309 0.0 0.0 0.00 0.00 0.00 72 1011.4
20260830154151 13 309 0.0 0.0 0.00 0.00 0.00 72 1011.4
20260830153942 13 309 0.0 0.0 0.00 0.00 0.00 72 1011.5
20260830153732 13 309 0.0 0.0 0.00 0.00 0.00 72 1011.5
20260830153338 13 309 0.0 0.0 0.00 0.00 0.00 71 1011.5
20260830153132 13 309 0.0 0.0 0.00 0.00 0.00 71 1011.4
20260830152737 12 309 0.0 0.0 0.00 0.00 0.00 71 1011.4
20260830152532 12 309 0.0 0.0 0.00 0.00 0.00 71 1011.4
20260830151957 12 309 0.0 0.0 0.00 0.00 0.00 70 1011.5
20260830151746 12 309 0.0 0.0 0.00 0.00 0.00 70 1011.5
20260830151538 12 309 0.0 0.0 0.00 0.00 0.00 70 1011.5
20260830151329 12 309 0.0 0.0 0.00 0.00 0.00 70 1011.6
20260830151121 12 309 0.0 0.0 0.00 0.00 0.00 70 1011.6
20260830150918 12 309 0.0 0.0 0.00 0.00 0.00 69 1011.6
20260830150716 12 309 0.0 0.0 0.00 0.00 0.00 69 1011.6
20260830150322 12 309 0.0 0.0 0.00 0.00 0.00 69 1011.6
20260830150114 12 309 0.0 0.0 0.00 0.00 0.00 69 1011.6
20260830145904 12 309 0.0 0.0 0.00 0.00 0.00 69 1011.6
20260830145509 12 309 0.0 0.0 0.00 0.00 0.00 69 1011.6
20260830145255 12 309 0.0 0.0 0.00 0.00 0.00 69 1011.5
20260830145050 12 309 0.0 0.0 0.00 0.00 0.00 69 1011.5
20260830144845 12 309 0.0 0.0 0.00 0.00 0.00 69 1011.5
20260830144643 12 309 0.0 0.0 0.00 0.00 0.00 69 1011.5
20260830144435 12 309 0.0 0.0 0.00 0.00 0.00 68 1011.5
20260830144231 12 309 0.0 0.0 0.00 0.00 0.00 68 1011.5
20260830144022 12 309 0.0 0.0 0.00 0.00 0.00 68 1011.5
20260830143815 12 309 0.0 0.0 0.00 0.00 0.00 68 1011.5
20260830143418 12 309 0.0 0.0 0.00 0.00 0.00 68 1011.5
20260830143212 12 309 0.0 0.0 0.00 0.00 0.00 68 1011.5
20260830143009 12 309 0.0 0.0 0.00 0.00 0.00 68 1011.5
20260830142800 12 309 0.0 0.0 0.00 0.00 0.00 68 1011.5
20260830142557 12 309 0.0 0.0 0.00 0.00 0.00 68 1011.5
20260830142349 12 309 0.0 0.0 0.00 0.00 0.00 68 1011.4
20260830142139 12 309 0.0 0.0 0.00 0.00 0.00 68 1011.4
20260830141936 12 309 0.0 0.0 0.00 0.00 0.00 68 1011.4
20260830141724 12 309 0.0 0.0 0.00 0.00 0.00 68 1011.4
20260830141521 12 309 0.0 0.0 0.00 0.00 0.00 68 1011.4
20260830141318 12 309 0.0 0.0 0.00 0.00 0.00 68 1011.3
20260830141117 12 309 0.0 0.0 0.00 0.00 0.00 68 1011.3
20260830140907 12 309 0.0 0.0 0.00 0.00 0.00 68 1011.3
20260830140522 12 309 0.0 0.0 0.00 0.00 0.00 68 1011.2
20260830140315 12 309 0.0 0.0 0.00 0.00 0.00 67 1011.3
20260830135857 12 309 0.0 0.0 0.00 0.00 0.00 67 1011.3
20260830135651 12 309 0.0 0.0 0.00 0.00 0.00 67 1011.2
20260830135443 12 309 0.0 0.0 0.00 0.00 0.00 67 1011.2
20260830135241 12 309 0.0 0.0 0.00 0.00 0.00 67 1011.2
20260830135034 12 309 0.0 0.0 0.00 0.00 0.00 67 1011.2
20260830134825 12 309 0.0 0.0 0.00 0.00 0.00 67 1011.2
20260830134614 12 309 0.0 0.0 0.00 0.00 0.00 67 1011.2
20260830134405 12 309 0.0 0.0 0.00 0.00 0.00 67 1011.1
20260830134202 12 309 0.0 0.0 0.00 0.00 0.00 67 1011.2
20260830133952 12 309 0.0 0.0 0.00 0.00 0.00 67 1011.2
20260830133602 12 309 0.0 0.0 0.00 0.00 0.00 67 1011.1
20260830133349 12 309 0.0 0.0 0.00 0.00 0.00 67 1011.1
20260830133141 12 309 0.0 0.0 0.00 0.00 0.00 67 1011.0
20260830132934 12 309 0.0 0.0 0.00 0.00 0.00 67 1011.0
20260830132721 12 309 0.0 0.0 0.00 0.00 0.00 67 1011.0
20260830132510 12 309 0.0 0.0 0.00 0.00 0.00 67 1011.0
20260830132301 12 309 0.0 0.0 0.00 0.00 0.00 66 1011.0
20260830131745 12 309 0.0 0.0 0.00 0.00 0.00 66 1011.0
20260830131533 12 309 0.0 0.0 0.00 0.00 0.00 66 1011.0
20260830131323 12 309 0.0 0.0 0.00 0.00 0.00 66 1010.9
20260830131122 12 309 0.0 0.0 0.00 0.00 0.00 66 1010.9
20260830130734 12 309 0.0 0.0 0.00 0.00 0.00 66 1010.8
20260830130522 12 309 0.0 0.0 0.00 0.00 0.00 66 1010.9
20260830130315 12 309 0.0 0.0 0.00 0.00 0.00 66 1010.9
20260830130112 12 309 0.0 0.0 0.00 0.00 0.00 66 1010.9
20260830125902 12 309 0.0 0.0 0.00 0.00 0.00 65 1010.8
20260830125653 12 309 0.0 0.0 0.00 0.00 0.00 66 1010.9
20260830125444 12 309 0.0 0.0 0.00 0.00 0.00 65 1010.8
20260830125242 12 309 0.0 0.0 0.00 0.00 0.00 65 1010.9
20260830125039 12 309 0.0 0.0 0.00 0.00 0.00 65 1010.8
20260830124830 12 309 0.0 0.0 0.00 0.00 0.00 65 1010.8
20260830124619 12 309 0.0 0.0 0.00 0.00 0.00 65 1010.8
20260830124411 12 309 0.0 0.0 0.00 0.00 0.00 65 1010.8
20260830124206 12 309 0.0 0.0 0.00 0.00 0.00 65 1010.8
20260830123955 12 309 0.0 0.0 0.00 0.00 0.00 65 1010.9
20260830123557 12 309 0.0 0.0 0.00 0.00 0.00 65 1010.8
20260830123205 12 309 0.0 0.0 0.00 0.00 0.00 65 1010.8
20260830122956 12 309 0.0 0.0 0.00 0.00 0.00 65 1010.8
20260830122753 12 309 0.0 0.0 0.00 0.00 0.00 65 1010.8
20260830122543 12 309 0.0 0.0 0.00 0.00 0.00 65 1010.7
20260830122337 12 309 0.0 0.0 0.00 0.00 0.00 65 1010.7
20260830122134 12 309 0.0 0.0 0.00 0.00 0.00 65 1010.7
20260830121927 12 309 0.0 0.0 0.00 0.00 0.00 65 1010.7
20260830121722 12 309 0.0 0.0 0.00 0.00 0.00 65 1010.7
20260830121511 12 309 0.0 0.0 0.00 0.00 0.00 65 1010.7
20260830121309 12 309 0.0 0.0 0.00 0.00 0.00 64 1010.7
20260830121103 12 309 0.0 0.0 0.00 0.00 0.00 64 1010.7
20260830120855 12 309 0.0 0.0 0.00 0.00 0.00 64 1010.7
20260830120648 12 309 0.0 0.0 0.00 0.00 0.00 64 1010.7
20260830120438 12 309 0.0 0.0 0.00 0.00 0.00 64 1010.6
20260830120226 12 309 0.0 0.0 0.00 0.00 0.00 64 1010.7
20260830120018 12 309 0.0 0.0 0.00 0.00 0.00 64 1010.7
20260830115816 12 309 0.0 0.0 0.00 0.00 0.00 64 1010.7
20260830115613 12 309 0.0 0.0 0.00 0.00 0.00 64 1010.7
20260830115403 12 309 0.0 0.0 0.00 0.00 0.00 64 1010.7
20260830115159 12 309 0.0 0.0 0.00 0.00 0.00 64 1010.7
20260830114955 12 309 0.0 0.0 0.00 0.00 0.00 64 1010.7
20260830114744 12 309 0.0 0.0 0.00 0.00 0.00 64 1010.6
20260830114539 12 309 0.0 0.0 0.00 0.00 0.00 64 1010.6
20260830114331 12 309 0.0 0.0 0.00 0.00 0.00 64 1010.7
20260830114120 12 309 0.0 0.0 0.00 0.00 0.00 64 1010.6
20260830113904 12 309 0.0 0.0 0.00 0.00 0.00 64 1010.6
20260830113701 12 309 0.0 0.0 0.00 0.00 0.00 64 1010.7
20260830113457 12 309 0.0 0.0 0.00 0.00 0.00 64 1010.7
20260830113244 12 309 0.0 0.0 0.00 0.00 0.00 64 1010.7
20260830113031 12 309 0.0 0.0 0.00 0.00 0.00 64 1010.7
20260830112827 12 309 0.0 0.0 0.00 0.00 0.00 64 1010.8
20260830112623 12 309 0.0 0.0 0.00 0.00 0.00 64 1010.7
20260830112420 12 309 0.0 0.0 0.00 0.00 0.00 64 1010.7
20260830112215 12 309 0.0 0.0 0.00 0.00 0.00 64 1010.7
20260830112007 12 309 0.0 0.0 0.00 0.00 0.00 64 1010.7
20260830111759 12 309 0.0 0.0 0.00 0.00 0.00 64 1010.9
20260830111548 12 309 0.0 0.0 0.00 0.00 0.00 64 1010.7
20260830111340 12 309 0.0 0.0 0.00 0.00 0.00 64 1010.9
20260830111131 12 309 0.0 0.0 0.00 0.00 0.00 64 1010.8
20260830110923 12 309 0.0 0.0 0.00 0.00 0.00 64 1010.9
20260830110711 12 309 0.0 0.0 0.00 0.00 0.00 64 1010.9
20260830110503 12 309 0.0 0.0 0.00 0.00 0.00 64 1010.9
20260830110254 13 309 0.0 0.0 0.00 0.00 0.00 64 1010.9
20260830110049 13 309 0.0 0.0 0.00 0.00 0.00 63 1010.9
20260830105845 13 309 0.0 0.0 0.00 0.00 0.00 63 1010.8
20260830105634 13 309 0.0 0.0 0.00 0.00 0.00 63 1010.9
20260830105430 13 309 0.0 0.0 0.00 0.00 0.00 63 1010.8
20260830105224 13 309 0.0 0.0 0.00 0.00 0.00 63 1010.8
20260830105008 13 309 0.0 0.0 0.00 0.00 0.00 63 1010.8
20260830104758 13 309 0.0 0.0 0.00 0.00 0.00 63 1010.8
20260830104551 13 309 0.0 0.0 0.00 0.00 0.00 63 1010.9
20260830104345 13 309 0.0 0.0 0.00 0.00 0.00 63 1010.9
20260830103952 13 309 0.0 0.0 0.00 0.00 0.00 63 1010.9
20260830103601 13 309 0.0 0.0 0.00 0.00 0.00 63 1011.0
20260830103356 13 309 0.0 0.0 0.00 0.00 0.00 63 1011.0
20260830103149 13 309 0.0 0.0 0.00 0.00 0.00 63 1011.0
20260830102936 13 309 0.0 0.0 0.00 0.00 0.00 63 1011.0
20260830102724 13 309 0.0 0.0 0.00 0.00 0.00 63 1011.0
20260830102515 13 309 0.0 0.0 0.00 0.00 0.00 63 1010.9
20260830102307 13 309 0.0 0.0 0.00 0.00 0.00 63 1011.0
20260830102104 13 309 0.0 0.0 0.00 0.00 0.00 63 1010.9
20260830101709 13 309 0.0 0.0 0.00 0.00 0.00 63 1010.9
20260830101458 13 309 0.0 0.0 0.00 0.00 0.00 63 1010.9
20260830101254 13 309 0.0 0.0 0.00 0.00 0.00 62 1010.9
20260830101050 13 309 0.0 0.0 0.00 0.00 0.00 62 1010.9
20260830100845 13 309 0.0 0.0 0.00 0.00 0.00 62 1010.9
20260830100632 13 309 0.0 0.0 0.00 0.00 0.00 62 1011.0
20260830100425 13 309 0.0 0.0 0.00 0.00 0.00 62 1010.9
20260830095847 13 309 0.0 0.0 0.00 0.00 0.00 62 1011.0
20260830095642 13 309 0.0 0.0 0.00 0.00 0.00 62 1011.0
20260830095438 13 309 0.0 0.0 0.00 0.00 0.00 62 1011.0
20260830095233 13 309 0.0 0.0 0.00 0.00 0.00 62 1011.0
20260830095020 13 309 0.0 0.0 0.00 0.00 0.00 62 1011.0
20260830094813 13 309 0.0 0.0 0.00 0.00 0.00 62 1011.0
20260830094604 13 309 0.0 0.0 0.00 0.00 0.00 62 1011.0
20260830094353 13 309 0.0 0.0 0.00 0.00 0.00 62 1011.0
20260830094147 13 309 0.0 0.0 0.00 0.00 0.00 62 1011.0
20260830093938 13 309 0.0 0.0 0.00 0.00 0.00 61 1011.0
20260830093734 13 309 0.0 0.0 0.00 0.00 0.00 61 1011.0
20260830093531 13 309 0.0 0.0 0.00 0.00 0.00 61 1011.0
20260830093134 13 309 0.0 0.0 0.00 0.00 0.00 61 1011.0
20260830092930 13 309 0.0 0.0 0.00 0.00 0.00 61 1010.9
20260830092728 13 309 0.0 0.0 0.00 0.00 0.00 61 1010.9
20260830092514 13 309 0.0 0.0 0.00 0.00 0.00 61 1011.0
20260830092306 13 309 0.0 0.0 0.00 0.00 0.00 61 1011.0
20260830091916 13 309 0.0 0.0 0.00 0.00 0.00 61 1011.0
20260830091708 13 309 0.0 0.0 0.00 0.00 0.00 61 1011.0
20260830091456 13 309 0.0 0.0 0.00 0.00 0.00 61 1011.0
20260830091252 13 309 0.0 0.0 0.00 0.00 0.00 61 1011.0
20260830090900 13 309 0.0 0.0 0.00 0.00 0.00 61 1011.1
20260830090649 13 309 0.0 0.0 0.00 0.00 0.00 61 1011.0
20260830090436 13 309 0.0 0.0 0.00 0.00 0.00 61 1011.0
20260830090233 13 309 0.0 0.0 0.00 0.00 0.00 61 1011.0
20260830090028 13 309 0.0 0.0 0.00 0.00 0.00 61 1011.0
20260830085818 14 309 0.0 0.0 0.00 0.00 0.00 61 1011.0
20260830085607 14 309 0.0 0.0 0.00 0.00 0.00 61 1011.0
20260830085401 14 309 0.0 0.0 0.00 0.00 0.00 61 1011.0
20260830085152 14 309 0.0 0.0 0.00 0.00 0.00 61 1011.1
20260830084435 14 309 0.0 0.0 0.00 0.00 0.00 60 1011.1
20260830084228 14 309 0.0 0.0 0.00 0.00 0.00 60 1011.1
20260830084025 14 309 0.0 0.0 0.00 0.00 0.00 60 1011.1
20260830083823 14 309 0.0 0.0 0.00 0.00 0.00 60 1011.1
20260830083620 14 309 0.0 0.0 0.00 0.00 0.00 60 1011.2
20260830083408 14 309 0.0 0.0 0.00 0.00 0.00 60 1011.1
20260830083205 14 309 0.0 0.0 0.00 0.00 0.00 60 1011.1
20260830083002 14 309 0.0 0.0 0.00 0.00 0.00 60 1011.2
20260830082750 14 309 0.0 0.0 0.00 0.00 0.00 60 1011.1
20260830082544 14 309 0.0 0.0 0.00 0.00 0.00 60 1011.1
20260830082152 14 309 0.0 0.0 0.00 0.00 0.00 60 1011.2
20260830081943 14 309 0.0 0.0 0.00 0.00 0.00 60 1011.1
20260830081740 14 309 0.0 0.0 0.00 0.00 0.00 60 1011.1
20260830081533 14 309 0.0 0.0 0.00 0.00 0.00 60 1011.1
20260830081144 14 309 0.0 0.0 0.00 0.00 0.00 60 1011.1
20260830080936 14 309 0.0 0.0 0.00 0.00 0.00 60 1011.1
20260830080725 15 309 0.0 0.0 0.00 0.00 0.00 60 1011.2
20260830080515 15 309 0.0 0.0 0.00 0.00 0.00 59 1011.2
20260830080121 15 309 0.0 0.0 0.00 0.00 0.00 59 1011.2
20260830075910 15 309 0.0 0.0 0.00 0.00 0.00 59 1011.2
20260830075707 15 309 0.0 0.0 0.00 0.00 0.00 59 1011.3
20260830075504 15 309 0.0 0.0 0.00 0.00 0.00 59 1011.2
20260830075251 15 309 0.0 0.0 0.00 0.00 0.00 59 1011.2
20260830075047 15 309 0.0 0.0 0.00 0.00 0.00 59 1011.3
20260830074836 15 309 0.0 0.0 0.00 0.00 0.00 59 1011.2
20260830074633 15 309 0.0 0.0 0.00 0.00 0.00 59 1011.2
20260830074426 15 309 0.0 0.0 0.00 0.00 0.00 59 1011.2
20260830074220 15 309 0.0 0.0 0.00 0.00 0.00 59 1011.2
20260830074014 15 309 0.0 0.0 0.00 0.00 0.00 59 1011.3
20260830073807 15 309 0.0 0.0 0.00 0.00 0.00 59 1011.3
20260830073605 15 309 0.0 0.0 0.00 0.00 0.00 59 1011.3
20260830073352 15 309 0.0 0.0 0.00 0.00 0.00 59 1011.3
20260830073145 15 309 0.0 0.0 0.00 0.00 0.00 59 1011.4
20260830072939 15 309 0.0 0.0 0.00 0.00 0.00 59 1011.4
20260830072552 15 309 0.0 0.0 0.00 0.00 0.00 59 1011.4
20260830072345 15 309 0.0 0.0 0.00 0.00 0.00 58 1011.4
20260830071624 15 309 0.0 0.0 0.00 0.00 0.00 58 1011.4
20260830071414 15 309 0.0 0.0 0.00 0.00 0.00 58 1011.5
20260830071204 15 309 0.0 0.0 0.00 0.00 0.00 58 1011.3
20260830071001 15 309 0.0 0.0 0.00 0.00 0.00 58 1011.4
20260830070751 15 309 0.0 0.0 0.00 0.00 0.00 58 1011.4
20260830070538 15 309 0.0 0.0 0.00 0.00 0.00 58 1011.3
20260830070150 15 309 0.0 0.0 0.00 0.00 0.00 58 1011.4
20260830065945 15 309 0.0 0.0 0.00 0.00 0.00 58 1011.3
20260830065558 15 309 0.0 0.0 0.00 0.00 0.00 58 1011.5
20260830065357 15 309 0.0 0.0 0.00 0.00 0.00 58 1011.4
20260830065154 16 309 0.0 0.0 0.00 0.00 0.00 58 1011.5
20260830064946 16 309 0.0 0.0 0.00 0.00 0.00 57 1011.4
20260830064743 16 309 0.0 0.0 0.00 0.00 0.00 57 1011.4
20260830064530 16 309 0.0 0.0 0.00 0.00 0.00 57 1011.5
20260830064141 16 309 0.0 0.0 0.00 0.00 0.00 57 1011.5
20260830063930 16 309 0.0 0.0 0.00 0.00 0.00 57 1011.5
20260830063721 16 309 0.0 0.0 0.00 0.03 0.00 57 1011.4
20260830063515 16 309 0.0 0.0 0.00 0.03 0.00 57 1011.3
20260830063307 16 309 0.0 0.0 0.00 0.03 0.00 57 1011.4
20260830063101 16 309 0.0 0.0 0.00 0.03 0.00 56 1011.4
20260830062854 16 309 0.0 0.0 0.00 0.03 0.00 56 1011.4
20260830062648 16 309 0.0 0.0 0.00 0.03 0.00 56 1011.3
20260830062447 16 309 0.0 0.0 0.00 0.03 0.00 56 1011.4
20260830062244 16 309 0.0 0.0 0.00 0.03 0.00 56 1011.3
20260830062037 16 309 0.0 0.0 0.00 0.03 0.00 56 1011.3
20260830061833 16 309 0.0 0.0 0.00 0.03 0.00 56 1011.3
20260830061625 16 309 0.0 0.0 0.00 0.03 0.00 56 1011.3
20260830061421 16 309 0.0 0.0 0.00 0.03 0.00 55 1011.3
20260830061213 16 309 0.0 0.0 0.00 0.03 0.00 55 1011.3
20260830060639 16 309 0.0 0.0 0.00 0.03 0.00 55 1011.3
20260830060426 16 309 0.0 0.0 0.00 0.03 0.00 55 1011.3
20260830060036 17 309 0.0 0.0 0.00 0.03 0.00 55 1011.4
20260830055828 17 309 0.0 0.0 0.00 0.03 0.00 54 1011.4
20260830055615 17 309 0.0 0.0 0.00 0.03 0.00 54 1011.3
20260830055402 17 309 0.0 0.0 0.00 0.03 0.00 54 1011.4
20260830055157 17 309 0.0 0.0 0.00 0.03 0.00 54 1011.4
20260830054956 17 309 0.0 0.0 0.00 0.03 0.00 54 1011.4
20260830054750 17 309 0.0 0.0 0.00 0.03 0.00 54 1011.3
20260830054542 17 309 0.0 0.0 0.00 0.03 0.00 54 1011.4
20260830054335 17 309 0.0 0.0 0.00 0.03 0.00 54 1011.4
20260830054125 17 309 0.0 0.0 0.00 0.03 0.00 54 1011.4
20260830053728 17 309 0.0 0.0 0.00 0.03 0.00 53 1011.4
20260830053526 17 309 0.0 0.0 0.00 0.03 0.00 53 1011.4
20260830053315 17 309 0.0 0.0 0.00 0.03 0.00 53 1011.4
20260830053114 17 309 0.0 0.0 0.00 0.03 0.00 53 1011.4
20260830052909 17 309 0.0 0.0 0.00 0.03 0.00 53 1011.4
20260830052656 17 309 0.0 0.0 0.00 0.03 0.00 53 1011.5
20260830052449 17 309 0.0 0.0 0.00 0.03 0.00 53 1011.5
20260830052054 17 309 0.0 0.0 0.00 0.03 0.00 52 1011.5
20260830051851 18 309 0.0 0.0 0.00 0.03 0.00 52 1011.6
20260830051649 18 309 0.0 0.0 0.00 0.03 0.00 52 1011.6
20260830051435 18 309 0.0 0.0 0.00 0.03 0.00 52 1011.5
20260830051229 18 309 0.0 0.0 0.00 0.03 0.00 52 1011.6
20260830051022 18 309 0.0 0.0 0.00 0.03 0.00 52 1011.6
20260830050810 18 309 0.0 0.0 0.00 0.03 0.00 52 1011.6
20260830050606 18 309 0.0 0.0 0.00 0.03 0.00 52 1011.6
20260830050356 18 309 0.0 0.0 0.00 0.03 0.00 52 1011.7
20260830050151 18 309 0.0 0.0 0.00 0.03 0.00 52 1011.6
20260830045753 18 309 0.0 0.0 0.00 0.03 0.00 51 1011.6
20260830045547 18 309 0.0 0.0 0.00 0.03 0.00 51 1011.6
20260830045345 18 309 0.0 0.0 0.00 0.03 0.00 51 1011.6
20260830045139 18 309 0.0 0.0 0.00 0.03 0.00 51 1011.6
20260830044927 18 309 0.0 0.0 0.00 0.03 0.00 51 1011.6
20260830044715 18 309 0.0 0.0 0.00 0.03 0.00 51 1011.6
20260830044504 18 309 0.0 0.0 0.00 0.03 0.00 50 1011.5
20260830044255 19 309 0.0 0.0 0.00 0.03 0.00 50 1011.5
20260830043905 19 309 0.0 0.0 0.00 0.03 0.00 50 1011.6
20260830043701 19 309 0.0 0.0 0.00 0.03 0.00 50 1011.6
20260830043122 19 309 0.0 0.0 0.00 0.03 0.00 49 1011.5
20260830042916 19 309 0.0 0.0 0.00 0.03 0.00 49 1011.6
20260830042712 19 309 0.0 0.0 0.00 0.03 0.00 49 1011.5
20260830042504 20 309 0.0 0.0 0.00 0.03 0.00 49 1011.5
20260830042254 20 309 0.0 0.0 0.00 0.03 0.00 49 1011.5
20260830042051 20 309 0.0 0.0 0.00 0.03 0.00 49 1011.5
20260830041656 20 309 0.0 0.0 0.00 0.03 0.00 48 1011.5
20260830041446 20 309 0.0 0.0 0.00 0.03 0.00 48 1011.5
20260830041238 20 309 0.0 0.0 0.00 0.03 0.00 48 1011.4
20260830041027 20 309 0.0 0.0 0.00 0.03 0.00 48 1011.4
20260830040818 20 309 0.0 0.0 0.00 0.03 0.00 48 1011.4
20260830040606 20 309 0.0 0.0 0.00 0.03 0.00 47 1011.4
20260830040353 20 309 0.0 0.0 0.00 0.03 0.00 47 1011.3
20260830040151 20 309 0.0 0.0 0.00 0.03 0.00 47 1011.3
20260830035940 20 309 0.0 0.0 0.00 0.03 0.00 47 1011.3
20260830035738 20 309 0.0 0.0 0.00 0.03 0.00 46 1011.3
20260830035531 21 309 0.0 0.0 0.00 0.03 0.00 46 1011.3
20260830035323 21 309 0.0 0.0 0.00 0.03 0.00 46 1011.3
20260830035110 21 309 0.0 0.0 0.00 0.03 0.00 46 1011.2
20260830034908 21 309 0.0 0.0 0.00 0.03 0.00 45 1011.2
20260830034515 21 309 0.0 0.0 0.00 0.03 0.00 45 1011.2
20260830034305 21 309 0.0 0.0 0.00 0.03 0.00 45 1011.2
20260830034052 21 309 0.0 0.0 0.00 0.03 0.00 44 1011.2
20260830033704 21 309 0.0 0.0 0.00 0.03 0.00 44 1011.2
20260830033458 21 309 0.0 0.0 0.00 0.03 0.00 44 1011.2
20260830033256 21 309 0.0 0.0 0.00 0.03 0.00 44 1011.1
20260830033054 22 309 0.0 0.0 0.00 0.03 0.00 44 1011.1
20260830032841 22 309 0.0 0.0 0.00 0.03 0.00 44 1011.1
20260830032637 22 309 0.0 0.0 0.00 0.03 0.00 44 1011.1
20260830032239 22 309 0.0 0.0 0.00 0.03 0.00 44 1011.1
20260830032027 22 309 0.0 0.0 0.00 0.03 0.00 43 1011.1
20260830031815 22 309 0.0 0.0 0.00 0.03 0.00 43 1011.0
20260830031611 22 309 0.0 0.0 0.00 0.03 0.00 43 1011.0
20260830031404 22 309 0.0 0.0 0.00 0.03 0.00 43 1010.9
20260830031151 22 309 0.0 0.0 0.00 0.03 0.00 43 1011.0
20260830030948 23 309 0.0 0.0 0.00 0.03 0.00 42 1010.9
20260830030737 23 309 0.0 0.0 0.00 0.03 0.00 42 1010.9
20260830030527 23 309 0.0 0.0 0.00 0.03 0.00 42 1010.9
20260830030323 23 309 0.0 0.0 0.00 0.03 0.00 42 1010.9
20260830030116 23 309 0.0 0.0 0.00 0.03 0.00 42 1010.8
20260830025729 23 309 0.0 0.0 0.00 0.03 0.00 42 1010.7
20260830025523 23 309 0.0 0.0 0.00 0.03 0.00 41 1010.7
20260830025315 23 309 0.0 0.0 0.00 0.03 0.00 41 1010.8
20260830025106 23 309 0.0 0.0 0.00 0.03 0.00 41 1010.7
20260830024902 24 309 0.0 0.0 0.00 0.03 0.00 41 1010.8
20260830024701 24 309 0.0 0.0 0.00 0.03 0.00 40 1010.7
20260830024455 24 309 0.0 0.0 0.00 0.03 0.00 40 1010.7
20260830024251 24 309 0.0 0.0 0.00 0.03 0.00 40 1010.7
20260830023902 25 309 0.0 0.0 0.00 0.03 0.00 40 1010.7
20260830023653 25 309 0.0 0.0 0.00 0.03 0.00 39 1010.7
20260830023302 25 309 0.0 0.0 0.00 0.03 0.00 39 1010.7
20260830023057 25 309 0.0 0.0 0.00 0.03 0.00 39 1010.6
20260830022855 25 309 0.0 0.0 0.00 0.03 0.00 38 1010.6
20260830022651 25 309 0.0 0.0 0.00 0.03 0.00 38 1010.6
20260830022446 25 309 0.0 0.0 0.00 0.03 0.00 38 1010.6
20260830022233 25 309 0.0 1.6 0.00 0.03 0.00 38 1010.5
20260830022022 26 309 0.0 0.0 0.00 0.03 0.00 38 1010.6
20260830021811 26 309 0.0 0.0 0.00 0.03 0.00 38 1010.6
20260830021559 26 309 0.0 0.0 0.00 0.03 0.00 37 1010.7
20260830021352 26 309 0.0 0.0 0.00 0.03 0.00 37 1010.7
20260830020957 26 309 0.0 0.0 0.00 0.03 0.00 37 1010.7
20260830020750 26 309 0.0 1.6 0.00 0.03 0.00 37 1010.8
20260830020546 26 309 0.0 0.0 0.00 0.03 0.00 37 1010.8
20260830020339 26 309 0.0 0.0 0.00 0.03 0.00 37 1010.7
20260830020128 26 309 0.0 0.0 0.00 0.03 0.00 36 1010.7
20260830015925 26 309 0.0 0.0 0.00 0.03 0.00 36 1010.7
20260830015717 26 309 0.0 0.0 0.00 0.03 0.00 36 1010.7
20260830015508 27 309 0.0 1.6 0.00 0.03 0.00 36 1010.7
20260830015306 27 273 0.0 6.4 0.00 0.03 0.00 35 1010.7
20260830014917 27 273 0.0 3.2 0.00 0.03 0.00 35 1010.7
20260830014524 27 273 0.0 0.0 0.00 0.03 0.00 35 1010.7
20260830014321 27 273 0.0 1.6 0.00 0.03 0.00 35 1010.7
20260830014117 27 273 0.0 1.6 0.00 0.03 0.00 34 1010.7
20260830013912 27 273 0.0 0.0 0.00 0.03 0.00 34 1010.8
20260830013659 27 273 0.0 3.2 0.00 0.03 0.00 35 1010.8
20260830013457 27 202 0.0 0.0 0.00 0.03 0.00 35 1010.9
20260830013255 27 202 0.0 0.0 0.00 0.03 0.00 34 1010.8
20260830013052 27 202 0.0 1.6 0.00 0.03 0.00 33 1010.8
20260830012702 27 201 0.0 1.6 0.00 0.03 0.00 33 1010.8
20260830012457 27 201 0.0 0.0 0.00 0.03 0.00 33 1010.8
20260830012252 27 201 0.0 0.0 0.00 0.03 0.00 32 1010.8
20260830012045 27 201 0.0 0.0 0.00 0.03 0.00 33 1010.8
20260830011840 27 201 0.0 3.2 0.00 0.03 0.00 33 1010.8
20260830011441 28 324 0.0 0.0 0.00 0.03 0.00 33 1010.7
20260830011233 28 324 0.0 1.6 0.00 0.03 0.00 32 1010.7
20260830010844 28 324 0.0 3.2 0.00 0.03 0.00 31 1010.8
20260830010458 28 324 0.0 8.0 0.00 0.03 0.00 32 1010.8
20260830010251 28 311 0.0 8.0 0.00 0.03 0.00 32 1010.9
20260830005902 28 213 1.6 8.0 0.00 0.03 0.00 32 1010.8